Starlink 4070

operational
NORAD ID: 52664 Int'l Des: 2022-053 Owner: SPXS Country: US Constellation: starlink
LEOCIRCULAR

Über Starlink 4070

Beschreibung wird geladen...

Live-Position

3D-Globus wird geladen...

Nächste Überflüge

Höhenverlauf

Altitude vs Time

uPlot chart will show altitude changes over time

Zweizeiliger Elementsatz

1 52664U 22053J 25350.81386431 -.00000165 00000-0 77403-5 0 9993
2 52664 53.2166 166.1657 0001591 87.1336 272.9838 15.08829983198532
Epoch: 16. Dez. 2025 • Age: 13 hours

Aktueller Status

Höhe 548.4 km
Geschwindigkeit 7.59 km/s
Subsatellitenpunkt -26.97°S, 66.12°W
Startdatum 18. Mai 2022
Alter 3.5 years
Typ internet

Technische Details

Klassifizierung Payload
Masse 297.00 kg
Trockenmasse 275.00 kg
Gesamtmasse 297.00 kg
Länge 0.20 m
Durchmesser 2.80 m
Spannweite 9.00 m
Form Box + pan
Hersteller SPXS
Bus-Typ Starlink
Phasenstatus In Orbit
Besitzer/Staat SPXS/US

Große Konstellationen

Loading constellations...